| time (UTC) | temp C | wind direction | speed KPH | gust KPH | rain 1hr cm | rain 24hr cm | rain mn cm | humidity % | barometer mb |
| 20260831101025 | 22 | 189 | 0.0 | 0.0 | 0.00 | 0.00 | 0.00 | 90 | 1018.8 |
| 20260831091025 | 23 | 189 | 0.0 | 0.0 | 0.00 | 0.00 | 0.00 | 87 | 1018.7 |
| 20260831081018 | 24 | 185 | 4.8 | 4.8 | 0.00 | 0.00 | 0.00 | 84 | 1018.7 |
| 20260831071015 | 23 | 212 | 0.0 | 1.6 | 0.00 | 0.00 | 0.00 | 85 | 1018.8 |
| 20260831061032 | 23 | 203 | 0.0 | 3.2 | 0.00 | 0.00 | 0.00 | 85 | 1019.1 |
| 20260831051025 | 24 | 187 | 0.0 | 0.0 | 0.00 | 0.00 | 0.00 | 85 | 1019.5 |
| 20260831041021 | 25 | 187 | 0.0 | 0.0 | 0.00 | 0.00 | 0.00 | 81 | 1019.7 |
| 20260831031012 | 26 | 186 | 1.6 | 1.6 | 0.00 | 0.00 | 0.00 | 78 | 1019.8 |
| 20260831021028 | 25 | 189 | 0.0 | 0.0 | 0.00 | 0.00 | 0.00 | 80 | 1019.8 |
| 20260831011015 | 25 | 189 | 0.0 | 0.0 | 0.00 | 0.00 | 0.00 | 80 | 1020.0 |
| 20260831001017 | 26 | 189 | 0.0 | 0.0 | 0.00 | 0.00 | 0.00 | 76 | 1019.1 |
| 20260830231026 | 28 | 187 | 1.6 | 1.6 | 0.00 | 0.00 | 0.00 | 69 | 1019.2 |
| 20260830221030 | 30 | 199 | 4.8 | 6.4 | 0.00 | 0.00 | 0.00 | 64 | 1019.2 |
| 20260830211015 | 30 | 175 | 0.0 | 0.0 | 0.00 | 0.00 | 0.00 | 63 | 1018.7 |
| 20260830201020 | 31 | 165 | 0.0 | 0.0 | 0.00 | 0.00 | 0.00 | 64 | 1019.3 |
| 20260830191013 | 31 | 231 | 0.0 | 0.0 | 0.00 | 0.00 | 0.00 | 64 | 1020.3 |
| 20260830181031 | 31 | 193 | 3.2 | 3.2 | 0.00 | 0.00 | 0.00 | 64 | 1021.4 |
| 20260830171046 | 30 | 209 | 1.6 | 6.4 | 0.00 | 0.00 | 0.00 | 68 | 1022.1 |
| 20260830161017 | 30 | 196 | 4.8 | 4.8 | 0.00 | 0.00 | 0.00 | 67 | 1022.5 |
| 20260830151035 | 28 | 188 | 0.0 | 0.0 | 0.00 | 0.00 | 0.00 | 74 | 1022.8 |
| 20260830141025 | 26 | 193 | 0.0 | 0.0 | 0.00 | 0.00 | 0.00 | 84 | 1022.9 |
| 20260830131015 | 23 | 205 | 0.0 | 0.0 | 0.00 | 0.00 | 0.00 | 94 | 1023.6 |
| 20260830121023 | 22 | 147 | 0.0 | 0.0 | 0.00 | 0.00 | 0.00 | 96 | 1023.7 |
| 20260830111023 | 21 | 147 | 0.0 | 0.0 | 0.00 | 0.00 | 0.00 | 96 | 1023.4 |